TimeCST,TemperatureF,Dew PointF,Humidity,Sea Level PressureIn,VisibilityMPH,Wind Direction,Wind SpeedMPH,Gust SpeedMPH,PrecipitationIn,Events,Conditions,WindDirDegrees,DateUTC
12:53 AM,63.0,57.0,81,29.89,10.0,SSE,15.0,24.2,N/A,,Overcast,150,2013-02-07 06:53:00
1:53 AM,62.1,55.9,80,29.90,10.0,South,15.0,-,N/A,,Overcast,170,2013-02-07 07:53:00
2:53 AM,62.1,55.9,80,29.89,10.0,SSE,11.5,-,N/A,,Overcast,160,2013-02-07 08:53:00
3:19 AM,62.6,55.4,77,29.89,10.0,SSE,11.5,-,N/A,,Overcast,160,2013-02-07 09:19:00
3:53 AM,62.1,55.9,80,29.87,10.0,South,13.8,-,N/A,,Overcast,170,2013-02-07 09:53:00
4:13 AM,62.6,55.4,77,29.88,10.0,South,12.7,20.7,N/A,,Overcast,170,2013-02-07 10:13:00
4:53 AM,61.0,55.0,81,29.86,10.0,South,11.5,-,N/A,,Overcast,180,2013-02-07 10:53:00
5:53 AM,61.0,55.9,83,29.87,9.0,South,10.4,-,N/A,,Overcast,190,2013-02-07 11:53:00
6:11 AM,60.8,55.4,82,29.89,6.0,South,8.1,-,N/A,,Haze,190,2013-02-07 12:11:00
6:53 AM,61.0,55.9,83,29.88,5.0,South,8.1,17.3,N/A,,Haze,190,2013-02-07 12:53:00
7:20 AM,60.8,55.4,82,29.89,4.0,South,10.4,-,0.00,,Light Drizzle,190,2013-02-07 13:20:00
7:50 AM,60.8,55.4,82,29.89,3.0,South,12.7,-,0.00,,Light Drizzle,170,2013-02-07 13:50:00
7:53 AM,60.1,55.9,86,29.88,3.0,South,12.7,-,0.00,,Light Drizzle,170,2013-02-07 13:53:00
8:11 AM,62.6,55.4,77,29.89,4.0,South,9.2,-,0.00,,Haze,170,2013-02-07 14:11:00
8:53 AM,61.0,55.9,83,29.89,5.0,South,8.1,-,0.00,,Haze,180,2013-02-07 14:53:00
9:37 AM,64.4,57.2,77,29.88,7.0,South,12.7,-,N/A,,Partly Cloudy,170,2013-02-07 15:37:00
9:53 AM,66.0,57.0,73,29.87,7.0,South,11.5,-,N/A,,Scattered Clouds,170,2013-02-07 15:53:00
10:17 AM,66.2,57.2,73,29.88,10.0,South,9.2,-,N/A,,Mostly Cloudy,190,2013-02-07 16:17:00
10:53 AM,69.1,55.9,63,29.87,10.0,SSW,10.4,23.0,N/A,,Mostly Cloudy,200,2013-02-07 16:53:00
11:53 AM,72.0,55.9,57,29.85,10.0,SSW,11.5,18.4,N/A,,Mostly Cloudy,210,2013-02-07 17:53:00
12:03 PM,73.4,55.4,53,29.86,10.0,SSW,11.5,19.6,N/A,,Scattered Clouds,210,2013-02-07 18:03:00
12:53 PM,75.9,55.0,48,29.81,10.0,SSW,10.4,19.6,N/A,,Scattered Clouds,210,2013-02-07 18:53:00
1:53 PM,79.0,51.1,38,29.78,10.0,West,13.8,20.7,N/A,,Partly Cloudy,260,2013-02-07 19:53:00
2:53 PM,79.0,43.0,28,29.79,10.0,WNW,16.1,26.5,N/A,,Scattered Clouds,290,2013-02-07 20:53:00
3:00 PM,78.8,42.8,28,29.81,10.0,WNW,18.4,26.5,N/A,,Scattered Clouds,290,2013-02-07 21:00:00
3:53 PM,75.9,42.1,30,29.82,10.0,WNW,16.1,24.2,N/A,,Partly Cloudy,300,2013-02-07 21:53:00
4:53 PM,73.9,45.0,35,29.84,10.0,WNW,19.6,29.9,N/A,,Partly Cloudy,300,2013-02-07 22:53:00
5:53 PM,72.0,46.9,41,29.87,10.0,NW,13.8,21.9,N/A,,Scattered Clouds,310,2013-02-07 23:53:00
6:53 PM,66.0,52.0,60,29.92,10.0,NNW,20.7,31.1,N/A,,Scattered Clouds,340,2013-02-08 00:53:00
7:48 PM,60.8,48.2,63,29.97,10.0,NNW,21.9,32.2,N/A,,Mostly Cloudy,330,2013-02-08 01:48:00
7:53 PM,61.0,48.9,64,29.96,10.0,NNW,20.7,29.9,N/A,,Mostly Cloudy,340,2013-02-08 01:53:00
8:13 PM,60.8,48.2,63,29.99,10.0,North,23.0,34.5,N/A,,Scattered Clouds,350,2013-02-08 02:13:00
8:53 PM,59.0,46.9,64,30.01,10.0,NNW,18.4,28.8,N/A,,Partly Cloudy,340,2013-02-08 02:53:00
9:53 PM,57.9,46.9,67,30.05,10.0,NNW,11.5,24.2,N/A,,Mostly Cloudy,340,2013-02-08 03:53:00
10:53 PM,57.9,46.9,67,30.07,10.0,NNW,16.1,20.7,N/A,,Overcast,340,2013-02-08 04:53:00
11:53 PM,55.9,44.1,64,30.09,10.0,North,15.0,24.2,N/A,,Mostly Cloudy,360,2013-02-08 05:53:00